Vorticity
7 10 11 8 8 8 7 7 5 5 5 6 8 9 7 6 4 6 7 6 3 2 4 4 3 4 4 6 8 10 9 9 11 10 14 13 8 11 19 18 13 4 -4
9 14 9 9 9 8 8 5 5 5 5 7 6 5 5 6 7 7 5 4 4 3 4 3 4 4 5 5 3 -0 1 2 7 12 11 12 13 15 10 6 12 17 10
5 13 9 10 9 8 6 4 3 4 6 7 6 6 6 5 5 5 6 6 5 7 7 7 7 8 8 7 7 8 9 9 10 9 9 14 12 9 14 11 15 9 6
12 10 11 12 9 6 5 3 3 3 8 7 5 5 5 5 5 5 6 4 5 6 4 2 1 3 4 8 9 8 6 7 8 9 8 10 10 11 10 13 9 12 11
12 15 12 10 8 8 4 3 3 5 9 8 7 7 5 4 5 5 5 7 2 0 2 1 5 5 6 6 5 7 8 8 7 9 11 10 10 10 10 10 11 15 12
10 12 16 11 9 8 5 3 2 8 10 6 -1 -2 2 7 8 7 6 5 5 7 3 5 7 4 6 6 6 6 5 5 8 9 10 9 9 9 11 11 14 9 14
8 8 13 15 9 8 4 3 4 11 -0 2 5 -2 7 13 11 8 5 4 3 5 2 9 6 4 5 4 3 7 9 10 9 9 11 11 10 8 8 8 7 8 10
-1 12 10 16 11 7 3 4 5 8 1 4 1 4 14 15 11 6 5 4 2 2 11 5 4 5 7 10 7 6 9 10 11 13 12 11 11 10 8 7 7 6 4
15 17 12 15 14 11 8 7 9 3 -1 -2 2 -6 9 12 4 9 8 6 4 7 6 5 6 9 12 12 11 9 11 11 10 9 9 9 9 9 9 9 9 9 10
16 12 11 10 12 13 16 16 8 0 -2 -3 -8 -7 7 13 10 17 6 6 6 8 5 6 9 10 10 7 6 6 7 11 11 11 10 10 9 9 10 9 10 11 11
6 3 12 7 3 3 8 14 9 3 1 -8 -5 1 5 18 18 8 6 8 7 6 7 10 9 8 5 4 6 8 8 11 11 12 11 11 12 10 9 9 10 10 11
-1 6 7 12 11 7 9 7 7 7 3 7 7 12 8 28 15 11 10 7 8 10 11 9 7 4 6 9 11 12 14 13 13 13 14 13 12 12 11 11 10 10 10
9 4 8 13 13 13 11 11 10 9 10 7 18 19 17 18 14 6 6 7 12 9 7 6 6 8 9 10 12 13 14 15 14 14 15 14 14 13 12 13 12 12 12
10 12 12 12 12 11 11 11 14 14 12 13 22 23 16 12 10 12 17 18 9 8 6 8 7 9 10 12 13 14 14 13 13 13 13 13 14 14 14 13 12 11 11
4 6 6 8 8 12 14 15 16 19 25 17 9 9 12 12 14 15 11 11 7 6 6 7 9 10 13 14 15 16 14 14 13 13 13 13 14 13 13 12 12 11 11
6 12 13 17 16 17 18 19 12 8 9 10 9 6 7 12 14 10 5 3 5 6 7 9 11 13 15 16 17 13 13 14 12 12 11 12 11 11 11 11 11 10 11
17 18 13 16 19 13 6 6 9 6 4 8 8 8 12 13 11 7 8 9 7 6 8 9 11 14 16 14 14 14 13 12 11 11 11 10 10 10 10 10 10 11 13
15 8 11 10 5 7 11 14 8 2 10 11 13 14 12 10 7 5 6 6 8 8 8 10 12 14 15 11 13 12 11 10 10 10 10 10 10 10 12 14 14 13 12
7 11 13 8 4 5 8 9 11 11 12 12 12 11 10 11 10 8 9 8 8 9 10 11 13 14 13 12 12 11 10 10 10 11 11 11 12 13 13 14 13 13 12
13 9 3 7 8 8 9 7 9 9 8 9 8 8 9 9 9 10 11 10 10 11 11 12 13 12 12 12 11 11 12 12 12 12 14 13 13 13 12 13 10 11 11
9 10 7 7 7 5 5 7 7 7 7 7 9 10 10 11 11 11 12 12 12 12 12 12 12 12 12 12 12 11 10 11 11 11 12 13 11 12 12 13 12 11 9
4 4 5 4 4 5 6 5 8 8 10 10 12 12 13 13 14 14 14 14 13 12 12 12 12 12 12 11 11 11 12 13 13 13 13 12 13 13 13 10 11 9 8
4 5 6 8 9 9 10 11 10 10 10 13 14 15 16 17 16 15 15 14 13 12 12 11 12 12 12 11 12 13 15 15 14 15 13 13 14 12 11 10 10 9 8
9 9 9 10 12 13 14 15 16 17 16 16 15 15 14 14 13 13 13 13 13 13 12 12 12 13 12 13 14 15 15 14 15 16 15 12 10 11 9 10 9 8 9
13 15 16 16 17 16 15 15 13 11 11 11 12 12 12 12 12 12 13 12 13 13 13 14 13 13 13 14 13 14 14 14 14 13 12 10 10 10 10 9 10 10 12
16 16 17 16 16 14 14 15 13 12 12 12 12 11 10 11 11 12 12 11 13 13 13 13 14 15 13 13 14 14 13 15 15 15 13 6 8 10 11 11 10 11 11
Height
3089 3090 3090 3090 3090 3090 3090 3090 3090 3089 3088 3087 3085 3083 3082 3081 3080 3079 3077 3076 3075 3074 3073 3071 3069 3068 3067 3066 3065 3064 3064 3063 3063 3064 3065 3065 3066 3065 3067 3070 3068 3071 3072
3085 3087 3087 3086 3086 3086 3087 3087 3087 3086 3085 3084 3082 3081 3079 3078 3077 3076 3074 3073 3072 3071 3070 3069 3067 3065 3064 3063 3061 3060 3059 3057 3056 3056 3057 3059 3060 3058 3058 3061 3062 3062 3064
3083 3083 3083 3084 3083 3084 3084 3083 3083 3083 3082 3080 3079 3078 3077 3075 3073 3072 3071 3070 3068 3067 3066 3064 3062 3061 3059 3057 3056 3055 3054 3053 3050 3049 3049 3050 3052 3054 3051 3051 3053 3054 3055
3080 3079 3080 3080 3080 3080 3081 3081 3079 3079 3078 3076 3076 3075 3073 3072 3071 3068 3067 3066 3064 3063 3061 3060 3059 3056 3054 3052 3050 3048 3047 3046 3046 3045 3043 3041 3042 3045 3048 3046 3045 3046 3048
3076 3076 3075 3076 3076 3076 3076 3075 3075 3074 3073 3073 3072 3070 3069 3068 3066 3064 3063 3061 3059 3058 3056 3054 3053 3051 3049 3046 3045 3043 3041 3039 3038 3038 3037 3035 3034 3034 3034 3038 3039 3039 3039
3073 3071 3071 3070 3070 3071 3071 3071 3070 3069 3068 3067 3066 3065 3063 3061 3060 3058 3057 3055 3053 3052 3050 3048 3046 3044 3042 3041 3039 3037 3035 3032 3030 3030 3029 3028 3028 3027 3026 3026 3029 3030 3031
3070 3068 3067 3067 3067 3067 3066 3066 3065 3064 3063 3061 3060 3058 3056 3054 3052 3051 3049 3048 3046 3045 3043 3041 3039 3037 3034 3032 3029 3028 3027 3026 3023 3022 3021 3020 3020 3019 3018 3018 3019 3020 3021
3066 3064 3063 3062 3062 3063 3061 3060 3059 3058 3056 3054 3053 3051 3049 3047 3045 3043 3041 3040 3039 3037 3035 3033 3031 3029 3027 3025 3022 3020 3018 3016 3015 3014 3013 3012 3012 3011 3011 3011 3011 3011 3012
3062 3059 3058 3057 3056 3056 3055 3053 3053 3051 3049 3047 3045 3044 3042 3039 3037 3033 3032 3031 3029 3028 3025 3024 3022 3020 3018 3016 3014 3012 3011 3008 3006 3004 3003 3002 3001 3001 3001 3002 3002 3002 3002
3056 3054 3052 3050 3049 3049 3049 3047 3045 3042 3041 3039 3037 3035 3033 3029 3027 3025 3023 3021 3020 3018 3016 3014 3012 3009 3007 3005 3003 3000 2999 2999 2997 2995 2995 2993 2991 2990 2990 2990 2990 2991 2992
3049 3048 3048 3046 3044 3042 3041 3040 3037 3035 3033 3030 3027 3026 3024 3020 3017 3015 3013 3011 3009 3008 3007 3005 3002 2999 2998 2995 2993 2990 2987 2988 2986 2985 2984 2983 2982 2981 2980 2980 2980 2981 2981
3042 3041 3040 3038 3037 3035 3033 3030 3028 3025 3022 3021 3017 3014 3012 3010 3007 3004 3002 3001 3000 2998 2997 2995 2993 2990 2987 2986 2984 2981 2978 2975 2974 2973 2973 2971 2971 2971 2970 2971 2971 2971 2971
3036 3034 3032 3030 3028 3026 3023 3021 3019 3016 3013 3010 3007 3004 3001 2999 2996 2995 2993 2992 2991 2990 2987 2985 2983 2980 2977 2975 2972 2969 2967 2965 2963 2963 2962 2961 2960 2960 2960 2961 2961 2961 2961
3030 3028 3025 3022 3019 3016 3014 3010 3008 3006 3004 3001 2997 2995 2993 2990 2988 2986 2984 2982 2981 2980 2977 2975 2972 2969 2966 2964 2961 2959 2956 2955 2954 2953 2953 2952 2951 2951 2951 2951 2952 2951 2952
3024 3021 3017 3014 3011 3008 3005 3002 2999 2997 2994 2991 2989 2986 2984 2982 2980 2977 2975 2973 2972 2970 2967 2964 2961 2959 2955 2953 2950 2949 2947 2946 2944 2944 2943 2943 2943 2942 2942 2942 2942 2942 2943
3014 3011 3007 3003 3001 2999 2997 2994 2991 2989 2987 2984 2981 2978 2976 2974 2971 2968 2966 2964 2961 2958 2956 2954 2951 2948 2946 2943 2940 2939 2938 2937 2936 2936 2935 2935 2935 2934 2934 2934 2934 2934 2935
3005 3002 2999 2997 2994 2992 2989 2986 2984 2981 2978 2975 2972 2969 2966 2962 2960 2958 2957 2954 2951 2948 2946 2943 2941 2938 2936 2933 2931 2930 2929 2928 2928 2927 2927 2927 2926 2926 2927 2926 2927 2927 2927
2997 2994 2992 2990 2987 2985 2982 2979 2975 2972 2969 2966 2962 2959 2956 2953 2950 2947 2945 2943 2940 2936 2933 2931 2930 2928 2926 2924 2922 2921 2920 2919 2919 2919 2919 2919 2919 2919 2919 2919 2919 2920 2920
2991 2988 2985 2982 2979 2976 2973 2970 2966 2962 2959 2955 2952 2948 2945 2942 2939 2936 2934 2931 2928 2926 2923 2920 2920 2918 2917 2916 2914 2912 2911 2911 2910 2910 2910 2910 2910 2910 2910 2911 2911 2911 2912
2985 2981 2977 2974 2970 2967 2963 2959 2955 2951 2948 2945 2941 2938 2935 2931 2928 2925 2922 2919 2917 2914 2911 2910 2909 2908 2908 2907 2904 2902 2902 2902 2902 2902 2903 2903 2902 2902 2903 2903 2904 2905 2906
2977 2973 2969 2966 2961 2957 2953 2949 2945 2940 2937 2934 2930 2926 2922 2919 2916 2913 2910 2907 2905 2902 2900 2899 2899 2897 2897 2896 2894 2893 2892 2893 2892 2892 2894 2894 2894 2895 2895 2896 2898 2899 2900
2969 2965 2960 2956 2951 2946 2942 2938 2933 2928 2924 2920 2916 2913 2909 2905 2902 2899 2898 2895 2892 2890 2890 2888 2888 2887 2886 2885 2885 2884 2883 2884 2883 2884 2885 2886 2886 2887 2888 2890 2892 2893 2894
2959 2954 2950 2945 2940 2934 2929 2924 2919 2914 2911 2906 2903 2899 2895 2892 2889 2886 2885 2883 2882 2880 2879 2877 2876 2876 2876 2875 2875 2875 2875 2875 2875 2876 2877 2878 2879 2880 2882 2884 2885 2887 2888
2948 2943 2938 2934 2929 2923 2918 2912 2907 2901 2897 2894 2891 2887 2884 2881 2878 2876 2873 2871 2870 2868 2867 2865 2865 2865 2865 2865 2866 2866 2866 2866 2867 2868 2870 2871 2872 2874 2876 2877 2879 2880 2882
2937 2931 2926 2920 2916 2910 2905 2900 2895 2890 2886 2882 2879 2876 2872 2870 2867 2865 2863 2860 2859 2857 2856 2855 2854 2854 2855 2856 2855 2856 2857 2858 2860 2861 2862 2864 2865 2867 2869 2871 2873 2874 2876
2925 2919 2913 2908 2903 2898 2893 2888 2883 2878 2874 2870 2867 2864 2860 2858 2855 2853 2851 2851 2848 2847 2846 2845 2844 2844 2845 2845 2846 2847 2849 2850 2852 2853 2855 2856 2858 2860 2862 2864 2866 2867 2869